Location: 3 Angels Observatory
(30.5437°N, 88.5068°W)
Time: 03:31:00
(UTC-05:00)

Daily predictions for brighter satellites

Satellite Brightness Start Highest point End
(mag) Time Altitude Azimuth Time Altitude Azimuth Time Altitude Azimuth
Atlas Centaur 2 4.1 03:39:52 25° E 03:39:52 25° E 03:42:03 10° E
Cosmos 2263 Rocket 4.0 03:40:13 27° NE 03:40:13 27° NE 03:42:55 10° NE
Atlas 2A Centaur Rocket 4.1 03:43:06 56° SE 03:43:06 56° SE 04:01:45 10° E
Okean O Rocket 1.8 04:42:56 10° NNE 04:47:15 67° E 04:47:42 62° SE
Cosmos 2208 Rocket 4.5 04:44:20 10° N 04:49:32 60° ENE 04:54:39 10° SSE
ATLAS 3B R/B 2.8 04:51:33 34° SSW 04:55:11 88° WNW 05:02:28 10° NNE
H-II Stage 2 4.5 04:57:55 17° SE 04:57:55 17° SE 04:59:06 10° ESE
ADEOS II 2.4 04:54:13 10° N 04:58:42 45° NW 04:58:42 45° NW
Cosmos 1975 2.7 04:55:22 10° N 04:59:28 87° E 05:00:54 40° S
IRS-1C Rocket 4.4 04:54:17 10° NNE 04:59:32 66° ESE 05:04:46 10° S
Cosmos 2266 Rocket 4.0 04:53:26 10° NNW 04:59:44 61° W 05:06:00 10° S
Delta 2 Rocket 4.0 04:59:20 58° W 05:00:28 83° NNW 05:06:16 10° ENE
CZ-4B DEB 4.1 04:56:49 10° NNE 05:02:17 87° ESE 05:07:10 13° SSW
Tiangong 1 3.5 05:09:37 13° NNE 05:09:55 13° NNE 05:11:22 10° NE
Meteor 1-31 Rocket 3.4 05:07:08 10° NNE 05:10:56 54° E 05:14:39 10° S
Cosmos 1666 3.7 05:08:01 10° N 05:11:40 46° E 05:15:19 10° SSE
Cosmos 1844 Rocket 3.1 05:07:15 10° S 05:12:48 63° ESE 05:18:24 10° NNE
ATLAS CENTAUR R/B 3.7 05:12:27 10° SSE 05:15:34 22° ESE 05:18:34 10° ENE
Cosmos 1943 3.4 05:13:45 10° NW 05:19:08 45° WSW 05:24:28 10° S
Cosmos 2263 Rocket 3.6 05:21:57 20° NW 05:21:57 20° NW 05:25:42 10° NNW
Cosmos 1743 2.6 05:18:11 10° N 05:22:07 88° WSW 05:25:59 10° S
ASTRO E2 3.0 05:23:57 36° SW 05:25:17 57° SSE 05:29:14 10° E
Atlas Centaur 2 2.0 05:22:30 30° W 05:25:34 89° S 05:30:30 10° E
PSLV R/B 4.4 05:22:14 10° NNW 05:25:27 29° WNW 05:25:27 29° WNW
CZ-4B R/B 4.2 05:24:26 10° NNW 05:26:42 22° NW 05:26:42 22° NW
OAO 1 Rocket 4.4 05:25:30 31° WSW 05:28:07 82° NNW 05:33:30 10° ENE
PAYLOAD B 4.5 05:25:23 10° N 05:30:37 46° WNW 05:35:23 12° SW
Cosmos 724 4.3 05:26:03 11° SSW 05:31:59 80° WNW 05:38:04 10° NNE
Cosmos 1544 Rocket 3.6 05:27:56 10° NNW 05:32:08 50° W 05:36:21 10° SSW
SEDSat Delta rocket 4.5 05:33:15 24° WSW 05:35:43 32° SSW 05:40:33 10° SSE
Meteor PRIRODA 3.9 05:34:56 10° N 05:38:28 45° WNW 05:41:31 13° SSW
GPS 2-14 Rocket1 4.5 05:37:21 15° SSW 05:38:39 18° S 05:41:16 10° SE
Cosmos 1455 Rocket 3.2 05:35:44 10° NNW 05:39:51 45° W 05:43:58 10° SSW
Skynet4D Del rocket 3.8 05:36:21 22° WSW 05:40:02 60° S 05:45:22 10° E
TRAILBLAZER 4.5 05:36:27 12° SSW 05:40:38 80° WNW 05:45:11 10° NNE
NOSS 3-2 (A) 3.4 05:36:35 10° SSW 05:42:25 88° ESE 05:48:44 10° NNE
Meteor 1-4 Rocket 2.4 05:39:15 10° NNW 05:42:40 60° W 05:46:05 10° S
SJ-6F 4.3 05:40:29 10° N 05:44:37 69° WNW 05:48:41 10° SSW
Cosmos 1486 Rocket 4.0 05:40:32 10° SSW 05:45:45 65° WNW 05:50:58 10° N
CZ-4B R/B 4.0 05:42:12 10° N 05:46:03 50° WNW 05:50:04 10° SSW
Cosmos 468 Rocket 4.0 05:42:00 10° NNW 05:47:18 67° WSW 05:52:31 10° S
ASC 2 Rocket 4.0 05:45:43 18° WSW 05:47:59 30° S 05:51:38 10° ESE
Feng Yun 1-1 Rocket 4.3 05:44:11 10° NNE 05:49:36 83° ESE 05:55:05 10° SSW
BREEZE-M DEB 3.9 05:48:04 20° SW 05:49:44 89° SE 05:53:19 10° NE
Okean-O 2.7 05:46:14 10° NNE 05:50:41 81° ESE 05:55:06 10° S
Cosmos 1536 Rocket 4.4 05:49:39 10° SW 05:53:23 28° W 05:57:09 10° NNW
MTI 3.7 05:52:40 10° SSE 05:55:53 87° WSW 05:59:09 10° NNW
Cosmos 1844 3.6 05:51:31 10° SSW 05:57:03 69° WNW 06:02:41 10° NNE
IDEFIX/ARIANE 42P 3.9 05:55:05 10° NNE 06:00:08 45° E 06:05:07 10° S
CZ-4B R/B 4.2 05:59:45 10° NNW 06:03:58 25° WNW 06:08:13 10° WSW
Meteor 2-4 Rocket 4.1 05:59:13 10° SSW 06:04:23 41° WNW 06:09:43 10° N
GPS 2-05 Rocket1 3.2 06:03:42 14° W 06:06:05 37° SSW 06:08:56 10° SE
Cosmos 1763 Rocket 3.5 06:00:58 10° NNW 06:06:17 82° WSW 06:11:35 10° SSE
CZ-3 R/B 2.4 05:49:53 13° WSW 06:06:41 75° S 06:11:43 10° E
USA 238 DEB 4.5 06:01:24 10° WSW 06:07:31 33° NW 06:13:42 10° N
USA 238 4.5 06:01:29 10° WSW 06:07:38 33° NW 06:13:49 10° N
GOES 2 Rocket 3.8 06:06:07 12° W 06:09:44 38° SSW 06:14:02 10° SE
Cosmos 1553 Rocket 4.4 06:05:11 10° SSW 06:10:52 39° W 06:16:31 10° NNW
Cosmos 1745 Rocket 4.0 06:04:51 10° N 06:11:11 72° W 06:17:26 10° S
Cosmos 1271 Rocket 3.2 06:09:04 10° N 06:13:04 70° E 06:17:03 10° SSE
Okean 1-7 Rocket 3.6 06:11:37 10° SSW 06:16:04 63° W 06:20:34 10° N
Cosmos 1892 Rocket 4.4 06:13:25 10° S 06:17:43 57° E 06:22:00 10° NNE
Cosmos 371 Rocket 4.4 06:16:46 10° NW 06:20:35 23° W 06:24:22 10° SSW
NOAA 6 4.2 06:15:59 10° N 06:21:01 52° WNW 06:26:01 10° SSW
